Wind_Speed
5 4 4 4 4 4 4 4 4 4 4 4 3 3 3 3 2 1 1 1 2 2 2 2 3 2 2 2 2 2 1 1 1 1 1 2 1 2 2 2 3 4 5
4 4 4 4 3 3 4 4 3 3 3 3 3 3 3 3 2 1 1 1 2 1 2 2 2 2 2 2 2 2 2 1 1 1 1 1 1 2 2 3 3 3 4
5 4 4 3 3 4 4 3 3 3 3 3 3 3 2 2 1 1 1 1 1 1 1 2 3 3 2 2 2 2 2 2 2 2 2 2 2 2 2 3 3 4 4
4 4 4 4 3 3 4 3 3 3 4 3 3 3 3 2 2 2 2 1 1 1 1 1 2 2 2 2 2 2 2 2 2 2 2 2 3 3 2 3 3 4 5
4 4 4 4 4 4 4 3 4 4 4 4 3 3 4 4 3 2 2 1 1 1 2 1 2 2 2 2 2 2 2 2 3 3 3 3 3 3 4 4 4 5 5
4 3 4 4 4 4 4 3 3 4 4 4 3 3 3 4 4 3 3 3 2 2 2 2 1 1 1 1 1 1 2 2 3 3 3 4 4 5 5 6 6 6 7
4 4 4 5 5 5 5 4 4 4 4 3 3 3 4 4 4 4 4 3 3 2 2 2 2 2 2 2 2 2 2 3 4 4 4 5 5 5 6 7 7 7 8
5 4 5 5 5 5 5 5 5 4 4 4 3 3 2 3 4 4 4 4 3 3 3 3 3 3 3 3 3 3 4 4 5 5 6 6 6 6 6 7 8 9 9
6 6 6 5 5 5 5 4 4 5 5 5 4 3 2 2 2 3 4 4 4 4 4 3 3 3 4 4 4 5 5 5 6 6 6 6 6 7 7 7 8 8 8
6 6 6 5 5 5 5 4 5 5 5 5 4 3 3 3 3 3 3 4 4 4 4 5 5 5 5 5 5 6 6 6 6 6 7 7 7 7 7 7 8 9 10
6 6 5 5 5 5 5 5 5 6 6 6 5 5 4 4 5 4 4 4 4 4 5 5 5 5 5 6 6 6 7 7 7 7 8 8 8 8 9 10 11 11 12
6 6 6 6 6 6 6 6 6 6 7 7 6 6 6 6 6 6 6 6 6 6 6 6 6 6 6 6 7 7 7 8 8 8 9 9 10 10 11 12 13 13 14
7 6 6 7 7 7 7 7 7 7 7 7 7 7 7 7 7 7 7 7 7 7 8 7 8 8 8 8 8 9 9 9 10 10 10 11 12 13 13 14 14 15 15
7 7 7 7 7 7 7 7 7 8 8 8 8 8 9 8 8 8 8 8 8 8 9 9 9 9 9 9 10 10 10 11 12 13 13 14 14 15 15 15 16 16 17
7 7 7 7 8 8 8 8 9 9 9 9 9 9 9 9 9 9 9 9 9 9 9 10 10 11 11 12 12 12 13 13 14 14 15 15 16 16 16 17 18 18 18
7 7 7 7 8 8 8 8 9 10 10 10 10 10 10 10 10 10 10 10 10 11 11 11 11 12 12 13 14 14 14 14 14 15 15 16 17 17 18 18 19 19 20
8 8 8 8 8 8 8 9 9 10 10 11 10 10 11 11 11 11 12 12 12 12 12 12 13 13 14 14 14 14 14 14 15 16 17 18 18 18 19 19 20 20 20
10 9 9 8 9 9 10 10 10 11 11 11 11 11 12 12 12 13 13 13 13 13 13 14 14 15 15 14 14 15 15 16 17 17 18 18 18 19 20 21 21 22 22
11 11 10 10 10 10 11 11 12 12 12 12 12 12 12 12 13 13 13 13 14 14 15 14 15 15 16 16 16 16 16 17 17 18 19 19 20 21 22 22 23 24 25
13 12 11 11 11 11 13 13 13 12 12 13 14 14 13 13 13 14 15 14 15 15 15 16 16 16 17 17 18 18 18 18 19 20 21 21 22 23 23 24 25 26 27
14 14 13 13 13 14 14 14 14 14 14 14 15 15 14 14 14 14 15 15 16 16 16 17 17 17 17 18 18 18 19 21 21 22 23 23 24 24 24 25 26 27 27
17 16 15 15 15 15 16 16 16 16 16 16 16 16 16 16 15 16 16 17 17 17 18 18 18 18 18 19 19 19 20 21 22 23 25 25 25 25 25 26 27 28 29
18 18 17 16 15 15 16 17 17 17 17 17 17 17 17 17 17 17 17 18 18 18 19 19 19 19 19 20 21 21 22 23 24 24 25 25 25 25 26 26 27 28 28
19 19 18 18 17 16 16 17 17 18 18 18 18 17 17 18 18 18 19 19 19 19 19 20 20 21 21 21 22 22 23 24 24 24 24 24 25 26 26 27 28 29 30
21 20 20 20 19 18 18 17 18 18 19 19 19 19 19 19 19 19 19 20 20 19 20 20 21 21 21 22 23 23 23 23 24 24 24 25 26 27 27 28 29 30 30
21 22 21 21 20 19 19 19 19 19 19 19 19 20 20 20 20 19 19 20 19 20 21 21 22 22 22 23 23 23 23 23 24 24 25 26 27 28 28 29 29 30 30
Wind_Direction
313 316 312 306 295 280 267 265 263 258 250 248 270 273 277 286 289 268 297 327 328 2 24 31 28 28 20 5 2 12 3 344 331 320 304 297 285 270 262 270 273 260 256
310 311 303 304 297 285 277 271 260 254 249 248 257 260 268 274 258 271 315 319 325 3 28 38 31 20 8 4 5 4 358 352 357 329 323 310 290 278 275 282 277 272 270
313 312 307 301 288 293 277 266 260 256 258 264 265 256 260 256 233 256 287 301 353 358 27 43 31 20 7 359 5 10 6 359 351 341 317 310 306 287 285 285 279 275 274
308 309 304 297 289 289 270 250 255 257 255 256 256 259 248 235 236 254 272 291 331 345 352 12 8 5 3 2 1 359 360 360 355 344 333 317 301 288 287 284 279 277 278
312 307 302 287 283 284 273 249 248 247 248 246 249 254 244 238 237 257 256 271 291 310 326 346 3 354 349 351 349 348 351 348 342 336 330 325 319 312 308 299 291 287 285
309 305 298 284 278 279 271 248 250 245 244 245 245 256 253 234 234 247 247 250 265 282 296 304 333 337 338 334 326 330 339 339 335 330 325 322 314 310 307 302 294 287 286
292 293 293 284 275 273 263 253 251 249 243 245 251 256 251 248 240 238 235 243 253 275 286 282 299 312 321 320 314 310 320 317 318 318 316 316 317 308 303 299 296 292 292
288 285 288 281 271 265 262 259 255 248 243 244 250 254 255 261 250 235 231 239 247 259 272 275 288 301 314 316 315 316 314 311 312 313 313 311 311 309 306 300 300 296 293
286 286 286 273 262 257 258 258 254 244 238 241 242 243 252 267 270 251 235 234 238 245 256 264 275 292 304 306 308 310 312 313 315 315 317 316 314 311 310 302 302 303 301
276 284 282 263 249 247 250 250 248 241 236 233 238 239 252 268 270 265 248 241 240 251 261 265 269 277 284 290 296 302 301 306 309 312 315 316 317 316 314 309 305 304 304
273 276 274 258 250 246 250 247 243 242 238 236 238 248 257 260 261 256 253 250 254 257 265 273 274 279 284 289 293 301 300 301 303 304 304 306 308 307 307 307 304 303 302
282 271 258 258 254 248 249 250 245 242 239 237 238 250 258 257 255 253 255 258 261 264 268 273 274 279 287 292 295 296 299 300 302 301 301 301 302 304 305 304 304 303 301
282 273 259 253 254 250 250 247 244 244 244 239 240 252 259 260 258 256 259 261 265 268 273 276 277 277 281 288 293 295 295 296 300 300 300 300 301 302 304 304 303 303 302
282 273 260 253 251 251 249 245 243 246 248 246 247 252 259 260 261 261 263 266 266 271 275 277 280 281 281 286 291 293 293 294 296 296 297 298 300 299 301 301 302 302 301
279 271 261 258 252 250 251 248 244 249 252 252 252 256 259 260 262 263 262 267 270 273 274 276 280 283 285 287 288 289 292 294 295 297 297 297 299 300 299 300 300 300 300
275 268 264 257 253 252 249 247 247 249 251 254 256 258 258 260 265 266 264 266 268 270 273 274 276 282 287 289 288 289 290 293 294 296 297 297 297 298 300 302 302 302 301
266 264 260 257 253 253 255 253 250 249 252 254 256 257 257 260 264 265 264 266 268 269 272 274 277 280 285 288 288 290 290 293 296 297 297 298 299 300 301 302 301 302 302
264 258 255 255 251 254 258 258 256 253 253 254 257 258 261 264 265 265 266 268 272 271 272 275 278 281 283 285 285 288 291 295 296 296 297 298 298 300 301 302 301 302 301
261 257 254 253 255 257 259 260 260 258 255 256 259 260 265 268 267 266 267 270 271 273 274 275 280 283 283 283 284 286 289 293 295 297 297 297 299 300 300 300 300 301 301
258 257 256 256 258 260 262 263 261 259 258 257 257 260 264 269 270 269 270 271 271 274 275 278 282 283 283 283 284 285 287 289 293 296 298 298 298 299 299 300 300 300 301
257 259 260 259 259 261 263 265 262 258 258 258 257 259 264 269 271 272 272 273 274 275 277 279 281 283 282 284 285 286 288 291 292 293 295 297 298 298 299 299 301 301 302
254 257 259 260 260 260 262 263 262 262 262 260 261 262 264 268 270 271 273 275 275 276 279 280 282 283 285 287 288 289 291 293 293 294 294 296 298 299 299 300 300 301 301
254 256 258 260 262 264 263 261 260 263 264 264 264 263 263 267 269 272 273 274 276 278 280 282 283 285 285 287 288 289 291 292 293 294 296 296 298 300 300 301 302 303 302
254 256 257 259 261 264 264 259 260 264 265 265 264 264 266 270 270 271 273 275 276 277 280 283 284 284 285 286 287 288 290 292 293 295 298 298 300 301 301 302 302 303 302
253 254 256 258 258 260 261 260 262 265 265 265 264 265 267 271 272 272 273 274 275 278 281 283 284 285 286 287 287 289 291 293 294 296 298 300 301 301 302 303 304 304 303
255 255 256 258 258 258 259 263 263 265 265 265 265 266 268 269 271 273 275 274 276 280 280 281 283 284 285 286 287 288 289 291 293 295 297 299 301 302 302 303 304 305 305
Height
5872 5872 5872 5871 5871 5871 5871 5871 5871 5871 5871 5871 5871 5871 5871 5870 5870 5870 5869 5869 5869 5868 5867 5866 5866 5865 5864 5864 5863 5863 5862 5861 5861 5861 5861 5860 5860 5860 5860 5860 5859 5859 5859
5871 5871 5870 5870 5869 5869 5869 5869 5869 5869 5869 5870 5870 5870 5870 5869 5869 5869 5869 5868 5868 5867 5867 5866 5866 5865 5864 5864 5863 5862 5862 5861 5861 5861 5860 5860 5860 5860 5859 5859 5859 5859 5858
5869 5869 5869 5868 5868 5868 5868 5868 5868 5868 5868 5869 5869 5869 5869 5869 5869 5869 5868 5868 5867 5867 5867 5866 5865 5865 5864 5864 5863 5862 5862 5861 5861 5860 5860 5860 5859 5859 5859 5859 5858 5858 5857
5868 5868 5867 5867 5867 5867 5867 5867 5867 5867 5867 5867 5868 5868 5868 5868 5868 5868 5868 5868 5867 5867 5866 5866 5865 5864 5864 5863 5863 5862 5862 5861 5861 5860 5860 5859 5859 5859 5859 5858 5858 5857 5856
5866 5866 5866 5866 5865 5866 5866 5865 5866 5866 5866 5866 5867 5867 5867 5867 5867 5867 5867 5867 5866 5866 5866 5865 5865 5864 5863 5863 5862 5862 5861 5861 5860 5860 5859 5859 5858 5858 5857 5857 5857 5856 5855
5865 5865 5864 5864 5864 5864 5864 5864 5865 5865 5865 5865 5865 5866 5865 5866 5866 5866 5866 5866 5866 5865 5865 5864 5864 5864 5863 5863 5862 5862 5861 5861 5860 5859 5859 5858 5858 5857 5856 5856 5855 5855 5854
5864 5863 5863 5863 5862 5862 5862 5863 5863 5863 5864 5864 5864 5864 5864 5864 5864 5864 5864 5865 5864 5864 5864 5864 5864 5863 5862 5862 5862 5861 5861 5860 5859 5859 5858 5857 5856 5856 5855 5854 5853 5853 5852
5862 5862 5861 5861 5861 5861 5861 5861 5861 5862 5862 5863 5863 5863 5863 5863 5863 5863 5863 5863 5863 5863 5863 5863 5863 5862 5862 5861 5861 5860 5860 5859 5858 5858 5857 5856 5855 5855 5854 5853 5852 5851 5850
5860 5860 5859 5859 5859 5859 5859 5860 5860 5861 5861 5862 5862 5862 5862 5862 5862 5862 5862 5862 5862 5862 5862 5862 5862 5861 5861 5860 5860 5859 5859 5858 5857 5856 5856 5855 5854 5853 5852 5851 5850 5850 5848
5858 5857 5857 5857 5857 5858 5858 5858 5859 5859 5860 5860 5861 5861 5861 5861 5861 5861 5861 5861 5861 5861 5861 5861 5861 5860 5860 5859 5859 5858 5857 5857 5856 5855 5854 5853 5852 5851 5851 5849 5848 5847 5846
5855 5855 5855 5856 5856 5856 5856 5857 5857 5858 5858 5859 5860 5860 5860 5860 5860 5860 5860 5860 5860 5860 5860 5860 5859 5859 5858 5858 5857 5856 5856 5855 5854 5853 5852 5852 5851 5850 5848 5847 5846 5845 5844
5853 5853 5853 5853 5854 5854 5854 5855 5856 5856 5857 5858 5858 5858 5859 5859 5859 5859 5859 5859 5859 5858 5858 5858 5858 5858 5857 5856 5856 5855 5854 5853 5852 5851 5850 5849 5848 5847 5846 5844 5843 5842 5840
5851 5851 5851 5851 5852 5852 5853 5853 5854 5855 5855 5856 5856 5857 5857 5857 5857 5857 5857 5857 5857 5857 5856 5856 5856 5856 5855 5854 5854 5853 5852 5851 5850 5849 5848 5847 5845 5844 5843 5841 5839 5838 5836
5849 5849 5849 5849 5850 5850 5851 5852 5852 5853 5853 5854 5854 5855 5855 5855 5855 5855 5855 5855 5855 5855 5854 5854 5854 5854 5853 5852 5851 5850 5849 5848 5847 5846 5845 5844 5842 5840 5839 5837 5836 5834 5832
5847 5847 5847 5847 5847 5848 5849 5849 5850 5851 5851 5852 5852 5852 5853 5853 5853 5853 5853 5853 5852 5852 5852 5852 5851 5851 5850 5849 5848 5847 5846 5845 5844 5843 5842 5840 5838 5837 5835 5833 5831 5829 5828
5844 5844 5845 5845 5845 5846 5846 5847 5848 5848 5849 5849 5849 5850 5850 5850 5850 5850 5850 5850 5850 5850 5849 5849 5849 5848 5847 5846 5845 5844 5843 5842 5841 5839 5838 5836 5834 5833 5831 5829 5827 5825 5823
5841 5842 5842 5843 5843 5844 5844 5844 5845 5846 5846 5846 5847 5847 5847 5847 5847 5847 5847 5847 5847 5847 5846 5846 5845 5845 5844 5842 5841 5840 5839 5838 5837 5835 5834 5832 5830 5828 5826 5824 5822 5820 5818
5838 5838 5839 5840 5841 5841 5842 5842 5842 5843 5843 5844 5844 5844 5844 5844 5844 5843 5843 5843 5843 5843 5843 5842 5842 5841 5840 5839 5837 5836 5835 5834 5833 5831 5829 5827 5825 5823 5821 5819 5817 5814 5812
5835 5835 5836 5837 5837 5838 5838 5839 5839 5839 5840 5840 5841 5841 5840 5840 5840 5840 5840 5840 5840 5839 5839 5838 5837 5836 5835 5834 5833 5832 5831 5830 5828 5826 5824 5822 5820 5818 5816 5814 5811 5809 5806
5832 5832 5832 5833 5834 5834 5835 5835 5836 5836 5836 5836 5837 5837 5837 5837 5836 5836 5836 5836 5835 5835 5835 5834 5833 5832 5831 5830 5829 5827 5826 5825 5823 5821 5819 5817 5815 5812 5810 5808 5805 5802 5799
5827 5828 5829 5829 5830 5831 5831 5832 5832 5832 5833 5833 5833 5833 5833 5833 5832 5832 5832 5832 5831 5831 5830 5829 5828 5827 5826 5825 5824 5822 5821 5819 5818 5816 5814 5811 5809 5806 5804 5801 5798 5795 5793
5823 5823 5824 5824 5825 5826 5827 5827 5827 5828 5828 5828 5828 5828 5828 5828 5828 5828 5828 5827 5826 5826 5825 5824 5823 5822 5821 5820 5818 5817 5815 5814 5812 5810 5807 5805 5802 5800 5797 5794 5791 5788 5785
5817 5818 5819 5820 5820 5821 5821 5822 5822 5823 5823 5823 5823 5823 5823 5823 5823 5823 5823 5822 5821 5821 5820 5819 5818 5817 5816 5814 5813 5811 5809 5807 5805 5803 5801 5798 5796 5793 5790 5787 5784 5781 5778
5812 5813 5814 5814 5815 5815 5816 5816 5817 5817 5818 5818 5818 5818 5818 5818 5818 5818 5817 5817 5816 5815 5814 5813 5812 5811 5810 5808 5807 5805 5803 5801 5799 5797 5794 5792 5789 5787 5784 5781 5777 5774 5770
5806 5807 5808 5808 5809 5810 5810 5811 5811 5812 5812 5812 5812 5812 5812 5812 5812 5812 5811 5811 5810 5810 5809 5808 5806 5805 5803 5802 5800 5798 5797 5794 5792 5790 5788 5785 5783 5780 5776 5773 5770 5766 5762
5799 5800 5801 5802 5803 5804 5804 5804 5805 5805 5806 5806 5806 5806 5806 5806 5806 5805 5805 5804 5804 5803 5802 5801 5800 5798 5797 5795 5793 5792 5790 5788 5785 5783 5781 5778 5775 5772 5769 5766 5762 5758 5755